When you browse on this site, cookies collect data to enhance your experience and personalize the content and advertising you see.
Visit our Privacy Policy to learn more. By continuing to use the site, you agree to this use of cookies and data.
  • en Suisse
  • Liste des pays
  • À 7 jours
  • Température de l'eau
  • Carte satellitaire
  • Carte météo
  • Widgets météo
  • user-avatar
    Se connecter

    Météo par heure à Setif

    Ce jour, 16 Juin, Dimanche

    Heure Température Précipitation Vent Pression Humidité
    00:00 +19°C° 0 mm 2 m/s 674 mmHg 70%
    01:00 +19°C° 0 mm 2 m/s 673 mmHg 70%
    02:00 +20°C° 0 mm 1 m/s 673 mmHg 69%
    03:00 +19°C° 0 mm 1 m/s 673 mmHg 68%
    04:00 +20°C° 0 mm 1 m/s 673 mmHg 65%
    05:00 +20°C° 0 mm 1 m/s 674 mmHg 63%
    06:00 +20°C° 0 mm 2 m/s 674 mmHg 61%
    07:00 +23°C° 0 mm 2 m/s 674 mmHg 55%
    08:00 +25°C° 0 mm 2 m/s 675 mmHg 49%
    09:00 +26°C° 0 mm 2 m/s 675 mmHg 44%
    10:00 +28°C° 0 mm 2 m/s 675 mmHg 38%
    11:00 +30°C° 0 mm 2 m/s 676 mmHg 32%
    12:00 +32°C° 0 mm 2 m/s 676 mmHg 27%
    13:00 +33°C° 0 mm 3 m/s 675 mmHg 27%
    14:00 +33°C° 0 mm 4 m/s 675 mmHg 28%
    15:00 +33°C° 0 mm 5 m/s 675 mmHg 29%
    16:00 +30°C° 0 mm 4 m/s 674 mmHg 37%
    17:00 +28°C° 0 mm 4 m/s 674 mmHg 46%
    18:00 +26°C° 0 mm 4 m/s 673 mmHg 54%
    19:00 +25°C° 0 mm 4 m/s 673 mmHg 58%
    20:00 +22°C° 0 mm 3 m/s 673 mmHg 63%
    21:00 +21°C° 0 mm 3 m/s 673 mmHg 67%
    22:00 +21°C° 0 mm 3 m/s 672 mmHg 68%
    23:00 +20°C° 0 mm 3 m/s 672 mmHg 68%

    Demain, 17 Juin, Lundi

    Heure Température Précipitation Vent Pression Humidité
    00:00 +20°C° 0 mm 2 m/s 672 mmHg 69%
    01:00 +20°C° 0 mm 2 m/s 672 mmHg 70%
    02:00 +20°C° 0 mm 1 m/s 672 mmHg 71%
    03:00 +20°C° 0 mm 1 m/s 672 mmHg 73%
    04:00 +20°C° 0.1 mm 1 m/s 672 mmHg 71%
    05:00 +19°C° 0.1 mm 2 m/s 672 mmHg 69%
    06:00 +20°C° 0.1 mm 2 m/s 672 mmHg 67%
    07:00 +21°C° 0.1 mm 3 m/s 673 mmHg 60%
    08:00 +22°C° 0.1 mm 4 m/s 673 mmHg 54%
    09:00 +25°C° 0.1 mm 4 m/s 674 mmHg 48%
    10:00 +26°C° 0.1 mm 5 m/s 674 mmHg 45%
    11:00 +27°C° 0.1 mm 6 m/s 674 mmHg 41%
    12:00 +27°C° 0.1 mm 7 m/s 674 mmHg 38%
    13:00 +27°C° 0.1 mm 6 m/s 673 mmHg 41%
    14:00 +27°C° 0.1 mm 6 m/s 673 mmHg 43%
    15:00 +26°C° 0.1 mm 6 m/s 672 mmHg 45%
    16:00 +26°C° 0 mm 5 m/s 673 mmHg 47%
    17:00 +25°C° 0 mm 5 m/s 673 mmHg 50%
    18:00 +23°C° 0 mm 5 m/s 673 mmHg 52%
    19:00 +22°C° 0 mm 4 m/s 673 mmHg 55%
    20:00 +21°C° 0 mm 3 m/s 673 mmHg 59%
    21:00 +20°C° 0 mm 2 m/s 673 mmHg 63%
    22:00 +19°C° 0 mm 2 m/s 673 mmHg 64%
    23:00 +20°C° 0 mm 1 m/s 673 mmHg 65%

    Après-demain, 18 Juin, Mardi

    Heure Température Précipitation Vent Pression Humidité
    00:00 +20°C° 0 mm 1 m/s 673 mmHg 66%
    01:00 +20°C° 0 mm 1 m/s 672 mmHg 67%
    02:00 +19°C° 0 mm 1 m/s 672 mmHg 67%
    03:00 +19°C° 0 mm 1 m/s 672 mmHg 68%
    04:00 +20°C° 0 mm 1 m/s 672 mmHg 65%
    05:00 +20°C° 0 mm 1 m/s 673 mmHg 62%
    06:00 +21°C° 0 mm 1 m/s 673 mmHg 59%
    07:00 +23°C° 0 mm 1 m/s 673 mmHg 52%
    08:00 +25°C° 0 mm 1 m/s 674 mmHg 45%
    09:00 +27°C° 0 mm 1 m/s 674 mmHg 38%
    10:00 +28°C° 0 mm 1 m/s 675 mmHg 34%
    11:00 +29°C° 0 mm 2 m/s 675 mmHg 31%
    12:00 +31°C° 0 mm 2 m/s 675 mmHg 27%
    13:00 +31°C° 0 mm 3 m/s 675 mmHg 26%
    14:00 +33°C° 0 mm 3 m/s 674 mmHg 25%
    15:00 +33°C° 0 mm 3 m/s 674 mmHg 24%
    16:00 +31°C° 0 mm 3 m/s 674 mmHg 28%
    17:00 +30°C° 0 mm 3 m/s 674 mmHg 33%
    18:00 +28°C° 0 mm 4 m/s 673 mmHg 37%
    19:00 +27°C° 0 mm 3 m/s 673 mmHg 41%
    20:00 +26°C° 0 mm 2 m/s 673 mmHg 45%
    21:00 +25°C° 0 mm 2 m/s 673 mmHg 49%
    22:00 +24°C° 0 mm 1 m/s 673 mmHg 50%
    23:00 +24°C° 0 mm 1 m/s 673 mmHg 51%

    19 Juin, Mercredi

    Heure Température Précipitation Vent Pression Humidité
    00:00 +23°C° 0 mm 1 m/s 673 mmHg 52%
    01:00 +23°C° 0 mm 1 m/s 672 mmHg 51%
    02:00 +23°C° 0 mm 2 m/s 672 mmHg 50%
    03:00 +23°C° 0 mm 2 m/s 672 mmHg 48%
    04:00 +23°C° 0 mm 2 m/s 672 mmHg 44%
    05:00 +24°C° 0 mm 2 m/s 673 mmHg 40%
    06:00 +25°C° 0 mm 3 m/s 673 mmHg 36%
    07:00 +27°C° 0 mm 3 m/s 674 mmHg 32%
    08:00 +28°C° 0 mm 4 m/s 675 mmHg 27%
    09:00 +30°C° 0 mm 4 m/s 675 mmHg 23%
    10:00 +33°C° 0 mm 5 m/s 675 mmHg 21%
    11:00 +34°C° 0 mm 5 m/s 676 mmHg 19%
    12:00 +35°C° 0 mm 6 m/s 676 mmHg 17%
    13:00 +36°C° 0 mm 6 m/s 675 mmHg 17%
    14:00 +36°C° 0 mm 6 m/s 675 mmHg 17%
    15:00 +36°C° 0 mm 6 m/s 675 mmHg 17%
    16:00 +35°C° 0 mm 6 m/s 674 mmHg 19%
    17:00 +34°C° 0 mm 5 m/s 674 mmHg 21%
    18:00 +34°C° 0 mm 5 m/s 674 mmHg 22%
    19:00 +32°C° 0 mm 4 m/s 674 mmHg 26%
    20:00 +29°C° 0 mm 3 m/s 674 mmHg 30%
    21:00 +28°C° 0 mm 2 m/s 674 mmHg 33%
    22:00 +27°C° 0.1 mm 2 m/s 673 mmHg 33%
    23:00 +27°C° 0.1 mm 2 m/s 673 mmHg 33%

    20 Juin, Jeudi

    Heure Température Précipitation Vent Pression Humidité
    00:00 +27°C° 0.1 mm 2 m/s 672 mmHg 33%
    01:00 +26°C° 0.1 mm 2 m/s 672 mmHg 33%
    02:00 +26°C° 0.1 mm 2 m/s 672 mmHg 33%
    03:00 +26°C° 0.1 mm 2 m/s 672 mmHg 34%
    04:00 +26°C° 0 mm 2 m/s 672 mmHg 32%
    05:00 +27°C° 0 mm 2 m/s 673 mmHg 30%
    06:00 +28°C° 0 mm 2 m/s 673 mmHg 28%
    07:00 +30°C° 0 mm 3 m/s 674 mmHg 25%
    08:00 +33°C° 0 mm 5 m/s 675 mmHg 21%
    09:00 +35°C° 0 mm 7 m/s 675 mmHg 18%
    10:00 +35°C° 0 mm 8 m/s 675 mmHg 17%
    11:00 +37°C° 0 mm 9 m/s 675 mmHg 15%
    12:00 +38°C° 0 mm 9 m/s 675 mmHg 14%
    13:00 +38°C° 0 mm 9 m/s 675 mmHg 14%
    14:00 +38°C° 0 mm 9 m/s 675 mmHg 14%
    15:00 +38°C° 0 mm 9 m/s 674 mmHg 14%
    16:00 +37°C° 0 mm 9 m/s 674 mmHg 15%
    17:00 +37°C° 0 mm 8 m/s 674 mmHg 16%
    18:00 +35°C° 0 mm 8 m/s 674 mmHg 17%
    19:00 +33°C° 0 mm 6 m/s 674 mmHg 19%
    20:00 +32°C° 0 mm 5 m/s 673 mmHg 21%
    21:00 +29°C° 0 mm 4 m/s 673 mmHg 23%
    22:00 +29°C° 0 mm 4 m/s 673 mmHg 23%
    23:00 +29°C° 0 mm 4 m/s 672 mmHg 23%

    21 Juin, Vendredi

    Heure Température Précipitation Vent Pression Humidité
    00:00 +29°C° 0 mm 5 m/s 672 mmHg 22%
    01:00 +28°C° 0 mm 5 m/s 672 mmHg 23%
    02:00 +28°C° 0 mm 5 m/s 672 mmHg 24%
    03:00 +27°C° 0 mm 5 m/s 671 mmHg 24%
    04:00 +28°C° 0 mm 6 m/s 672 mmHg 25%
    05:00 +28°C° 0 mm 7 m/s 672 mmHg 25%
    06:00 +29°C° 0 mm 7 m/s 673 mmHg 25%
    07:00 +32°C° 0 mm 9 m/s 673 mmHg 22%
    08:00 +33°C° 0 mm 11 m/s 674 mmHg 19%
    09:00 +36°C° 0 mm 12 m/s 675 mmHg 16%
    10:00 +37°C° 0 mm 12 m/s 675 mmHg 16%
    11:00 +38°C° 0 mm 12 m/s 675 mmHg 15%
    12:00 +38°C° 0 mm 12 m/s 675 mmHg 14%
    13:00 +38°C° 0 mm 11 m/s 674 mmHg 14%
    14:00 +38°C° 0 mm 10 m/s 674 mmHg 14%
    15:00 +39°C° 0 mm 9 m/s 674 mmHg 14%
    16:00 +38°C° 0 mm 8 m/s 673 mmHg 15%
    17:00 +36°C° 0 mm 7 m/s 673 mmHg 17%
    18:00 +35°C° 0 mm 6 m/s 673 mmHg 19%
    19:00 +32°C° 0 mm 5 m/s 673 mmHg 25%
    20:00 +29°C° 0 mm 4 m/s 673 mmHg 31%
    21:00 +27°C° 0 mm 4 m/s 672 mmHg 37%
    22:00 +25°C° 0 mm 3 m/s 672 mmHg 43%
    23:00 +24°C° 0 mm 2 m/s 672 mmHg 49%
    Voir plus